DW0487 Weather Reports


Display with metric or nautical units.
time (UTC)temp
F
wind
direction
speed
MPH
gust
MPH
rain 1hr
in
rain 24hr
in
rain mn
in
humidity
%
barometer
mb
20200806094619 68 30 4.0 11.0 0.00 0.00 0.00 63 1019.0
20200806093118 68 25 2.0 10.0 0.00 0.00 0.00 66 1019.1
20200806091547 68 92 0.0 4.0 0.00 0.00 0.00 65 1019.3
20200806090210 66 68 0.0 1.0 0.00 0.00 0.00 68 1019.4
20200806084612 65 101 0.0 1.0 0.00 0.00 0.00 73 1019.4
20200806083042 62 314 0.0 1.0 0.00 0.00 0.00 76 1019.3
20200806081539 61 27 0.0 1.0 0.00 0.00 0.00 81 1019.5
20200806080031 60 30 0.0 4.0 0.00 0.00 0.00 81 1019.6
20200806074525 59 9 0.0 1.0 0.00 0.00 0.00 85 1019.6
20200806073016 57 26 0.0 2.0 0.00 0.00 0.00 88 1019.7
20200806071518 55 355 0.0 1.0 0.00 0.00 0.00 91 1019.8
20200806070201 54 355 0.0 1.0 0.00 0.00 0.00 92 1019.8
20200806064736 52 67 0.0 1.0 0.00 0.00 0.00 93 1019.7
20200806063133 50 121 0.0 0.0 0.00 0.00 0.00 93 1019.7
20200806061642 49 121 0.0 1.0 0.00 0.00 0.00 93 1019.7
20200806060211 48 121 0.0 0.0 0.00 0.00 0.00 93 1019.9
20200806054617 47 23 0.0 0.0 0.00 0.00 0.00 93 1019.7
20200806053141 46 23 0.0 0.0 0.00 0.00 0.00 93 1019.7
20200806051631 46 23 0.0 1.0 0.00 0.00 0.00 93 1019.5
20200806050129 45 342 0.0 0.0 0.00 0.00 0.00 93 1019.6
20200806044723 45 329 0.0 0.0 0.00 0.00 0.00 93 1019.5
20200806043130 45 329 0.0 0.0 0.00 0.00 0.00 93 1019.3
20200806041602 46 329 0.0 0.0 0.00 0.00 0.00 93 1019.3
20200806040120 46 329 0.0 0.0 0.00 0.00 0.00 93 1019.2
20200806034558 46 329 0.0 0.0 0.00 0.00 0.00 93 1019.3
20200806033107 46 329 0.0 0.0 0.00 0.00 0.00 93 1019.3
20200806031615 46 329 0.0 0.0 0.00 0.00 0.00 93 1019.3
20200806030217 46 329 0.0 0.0 0.00 0.00 0.00 93 1019.0
20200806024556 46 329 0.0 0.0 0.00 0.00 0.00 93 1019.1
20200806023129 46 329 0.0 0.0 0.00 0.00 0.00 92 1019.0
20200806021559 46 318 0.0 0.0 0.00 0.00 0.00 93 1019.0
20200806020129 45 20 0.0 1.0 0.00 0.00 0.00 92 1019.0
20200806014600 46 233 0.0 0.0 0.00 0.00 0.00 92 1019.0
20200806013054 46 233 0.0 0.0 0.00 0.00 0.00 92 1019.0
20200806011631 47 233 0.0 0.0 0.00 0.00 0.00 92 1019.0
20200806010146 46 233 0.0 0.0 0.00 0.00 0.00 92 1019.1
20200806004556 47 233 0.0 0.0 0.00 0.00 0.00 92 1019.1
20200806003040 47 233 0.0 0.0 0.00 0.00 0.00 92 1019.1
20200806001554 47 233 0.0 0.0 0.00 0.00 0.00 92 1019.1
20200806000105 47 233 0.0 0.0 0.00 0.00 0.00 92 1019.1
20200805234524 48 233 0.0 0.0 0.00 0.00 0.00 92 1019.1
20200805233051 48 178 0.0 0.0 0.00 0.00 0.00 92 1019.1
20200805231553 48 178 0.0 0.0 0.00 0.00 0.00 92 1019.1
20200805230118 48 178 0.0 0.0 0.00 0.00 0.00 92 1019.0
20200805224550 49 178 0.0 0.0 0.00 0.00 0.00 92 1019.0
20200805223024 50 178 0.0 0.0 0.00 0.00 0.00 92 1019.1
20200805221530 50 178 0.0 0.0 0.00 0.00 0.00 92 1019.1
20200805220033 50 178 0.0 0.0 0.00 0.00 0.00 91 1019.1
20200805214531 50 178 0.0 0.0 0.00 0.00 0.00 91 1019.1
20200805213022 51 178 0.0 0.0 0.00 0.00 0.00 91 1019.1
20200805211530 51 178 0.0 0.0 0.00 0.00 0.00 91 1019.2
20200805210016 52 225 0.0 0.0 0.00 0.00 0.00 91 1019.1
20200805204528 53 226 0.0 0.0 0.00 0.00 0.00 91 1019.0
20200805203018 53 226 0.0 0.0 0.00 0.00 0.00 90 1018.9
20200805201519 54 214 0.0 0.0 0.00 0.00 0.00 90 1018.8
20200805200010 54 214 0.0 0.0 0.00 0.00 0.00 89 1018.8
20200805194513 55 214 0.0 0.0 0.00 0.00 0.00 89 1018.5
20200805193018 57 49 0.0 1.0 0.00 0.00 0.00 86 1018.4
20200805191539 57 58 0.0 0.0 0.00 0.00 0.00 84 1018.0
20200805190051 58 28 0.0 1.0 0.00 0.00 0.00 83 1017.9
20200805184528 58 46 0.0 3.0 0.00 0.00 0.00 81 1017.7
20200805183022 60 11 0.0 5.0 0.00 0.00 0.00 79 1017.5
20200805181517 60 45 0.0 8.0 0.00 0.00 0.00 77 1017.3
20200805180021 62 25 4.0 10.0 0.00 0.00 0.00 72 1017.3
20200805174522 64 34 4.0 9.0 0.00 0.00 0.00 70 1017.3
20200805173022 64 15 6.0 12.0 0.00 0.00 0.00 68 1017.3
20200805171554 65 35 6.0 14.0 0.00 0.00 0.00 68 1017.2
20200805170019 65 50 7.0 12.0 0.00 0.00 0.00 67 1017.2
20200805164532 66 40 7.0 12.0 0.00 0.01 0.00 66 1017.1
20200805163103 65 24 7.0 13.0 0.00 0.01 0.00 67 1017.0
20200805161559 64 24 6.0 10.0 0.00 0.01 0.00 67 1017.1
20200805160107 65 63 3.0 9.0 0.00 0.01 0.00 67 1017.1
20200805154546 65 31 4.0 9.0 0.00 0.01 0.00 65 1017.1
20200805153109 65 27 5.0 10.0 0.00 0.01 0.00 63 1017.1
20200805151615 66 15 5.0 10.0 0.00 0.01 0.00 64 1017.0
20200805150110 67 333 4.0 9.0 0.00 0.01 0.00 63 1017.0
20200805144615 67 343 6.0 13.0 0.00 0.01 0.00 62 1017.1
20200805143101 68 341 6.0 13.0 0.00 0.01 0.00 61 1017.3
20200805141607 68 15 4.0 10.0 0.00 0.01 0.00 60 1017.3
20200805140106 68 344 6.0 12.0 0.00 0.01 0.00 59 1017.5
20200805134533 67 110 4.0 9.0 0.00 0.02 0.00 58 1017.6
20200805133105 65 5 5.0 8.0 0.00 0.02 0.00 63 1017.7
20200805131530 64 5 6.0 11.0 0.00 0.02 0.00 63 1017.8
20200805130018 63 57 5.0 15.0 0.00 0.02 0.00 64 1017.9
20200805124534 63 349 5.0 12.0 0.00 0.08 0.00 66 1017.9
20200805123037 63 355 5.0 12.0 0.00 0.08 0.00 64 1018.0
20200805121544 63 355 9.0 14.0 0.00 0.08 0.00 67 1018.1
20200805120012 63 23 6.0 12.0 0.00 0.08 0.00 67 1018.2
20200805114623 63 15 2.0 10.0 0.00 0.12 0.00 68 1018.3
20200805113009 62 20 6.0 12.0 0.00 0.12 0.00 67 1018.4
20200805111529 60 26 2.0 9.0 0.00 0.12 0.00 71 1018.6
20200805104514 62 32 4.0 11.0 0.00 0.26 0.00 69 1019.1
20200805103138 61 327 8.0 14.0 0.00 0.26 0.00 72 1019.1
20200805101654 60 57 3.0 9.0 0.00 0.26 0.00 78 1019.3
20200805100314 58 56 1.0 9.0 0.00 0.26 0.00 77 1019.3